Toronto, Ontario

9:52 AM EDT on July 27, 2017 (GMT -0400)
Toronto

Weather History for CYTZ - April, 2013

Change the Weather History Date:

Monday, April 8, 2013

  Actual Average Record
Temperature  
Mean Temperature 42 °F -  
Max Temperature 45 °F 53 °F 73 °F (2001)
Min Temperature 39 °F 39 °F 24 °F (1997)
Degree Days  
Heating Degree Days 23    
Moisture  
Dew Point 36 °F    
Average Humidity 80    
Maximum Humidity 93    
Minimum Humidity 50    
Precipitation  
Precipitation 0.20 in 0.08 in - ()
Sea Level Pressure  
Sea Level Pressure 29.93 in    
Wind  
Wind Speed 13 mph ()    
Max Wind Speed 30 mph    
Max Gust Speed 37 mph    
Visibility 8.0 miles    
Events Rain , Thunderstorm    
Averages and records for this station are not official NWS values.
T = Trace of Precipitation, MM = Missing Value Source: Averaged Metar Reports

Daily Weather History Graph

Daily Weather History Graph

Search for Another Location

Airport or City:

Trip Planner

Search our weather history database for the weather conditions in past years. The results will help you decide how hot, cold, wet, or windy it might be!

Date:

Astronomy

Apr. 08, 2013 Rise Set
Actual Time 6:46 AM EDT 7:53 PM EDT
Civil Twilight 6:17 AM EDT 8:22 PM EDT
Nautical Twilight 5:42 AM EDT 8:57 PM EDT
Astronomical Twilight 5:05 AM EDT 9:34 PM EDT
Moon 5:38 AM EDT (4/8) 6:23 PM EDT (4/8)
Length of Visible Light 14h 05m
Length of Day
13h 06m
Waning Crescent, 3% of the Moon is Illuminated
Apr 8
Waning Crescent
Apr 10
New
Apr 18
First Quarter
Apr 25
Full
May 2
Last Quarter

Hourly Weather History & Observations

Time (EDT) Temp. Windchill Dew Point Humidity Pressure Visibility Wind Dir Wind Speed Gust Speed Precip Events Conditions
12:00 AM 42.8 °F 37.5 °F 30.2 °F 61% 30.06 in 9.0 mi WNW 9.2 mph - N/A   Overcast
1:00 AM 42.8 °F 38.0 °F 28.4 °F 57% 30.07 in 9.0 mi West 8.1 mph - N/A   Overcast
2:00 AM 42 °F - 30 °F 50% 30.08 in 10 mi WNW 8.1 mph - -   Overcast
2:00 AM 42.8 °F 38.0 °F 30.2 °F 61% 30.08 in 9.0 mi WNW 8.1 mph - N/A   Overcast
3:00 AM 42.8 °F 40.1 °F 30.2 °F 61% 30.08 in 9.0 mi NNW 4.6 mph - N/A   Overcast
4:00 AM 41.0 °F 38.0 °F 30.2 °F 65% 30.07 in 9.0 mi WNW 4.6 mph - N/A   Overcast
5:00 AM 41.0 °F 39.0 °F 30.2 °F 65% 30.07 in 9.0 mi NW 3.5 mph - N/A   Overcast
6:00 AM 41.0 °F - 32.0 °F 70% 30.08 in 9.0 mi Calm Calm - N/A   Overcast
7:00 AM 41.0 °F - 32.0 °F 70% 30.10 in 9.0 mi Variable 2.3 mph - N/A   Overcast
8:00 AM 41 °F - 33 °F 64% 30.12 in 10 mi East 4.6 mph - -   Overcast
8:00 AM 41.0 °F 38.0 °F 32.0 °F 70% 30.12 in 9.0 mi East 4.6 mph - N/A   Overcast
9:00 AM 42.8 °F 38.0 °F 33.8 °F 70% 30.12 in 9.0 mi East 8.1 mph - N/A   Overcast
10:00 AM 42.8 °F 38.0 °F 33.8 °F 70% 30.12 in 9.0 mi East 8.1 mph - N/A   Clear
11:00 AM 44.6 °F 38.8 °F 33.8 °F 66% 30.11 in 9.0 mi East 11.5 mph - N/A   Clear
12:00 PM 44.6 °F 38.1 °F 35.6 °F 71% 30.08 in 9.0 mi East 13.8 mph - N/A   Clear
1:00 PM 44.6 °F 37.4 °F 33.8 °F 66% 30.07 in 9.0 mi East 16.1 mph - N/A   Clear
2:00 PM 44 °F - 35 °F 61% 30.04 in 10 mi East 18.4 mph - -  
2:00 PM 44.6 °F 37.2 °F 35.6 °F 71% 30.04 in 9.0 mi ENE 17.3 mph - N/A   Mostly Cloudy
3:00 PM 42.8 °F 33.3 °F 35.6 °F 76% 29.98 in 9.0 mi ENE 24.2 mph 29.9 mph N/A   Mostly Cloudy
4:00 PM 42.8 °F 33.8 °F 33.8 °F 70% 29.95 in 9.0 mi ENE 21.9 mph 27.6 mph N/A   Mostly Cloudy
4:23 PM 41.0 °F 30.9 °F 35.6 °F 81% 29.94 in 9.0 mi ENE 24.2 mph 29.9 mph N/A Rain Light Rain
5:00 PM 41.0 °F 31.1 °F 35.6 °F 81% 29.92 in 9.0 mi ENE 23.0 mph 28.8 mph N/A Rain Light Rain
5:41 PM 41.0 °F 31.1 °F 35.6 °F 81% 29.94 in 5.0 mi ENE 23.0 mph 28.8 mph N/A Rain Light Rain
5:46 PM 41.0 °F 31.1 °F 35.6 °F 81% 29.94 in 6.0 mi ENE 23.0 mph 28.8 mph N/A Rain Light Rain
5:59 PM 41.0 °F 30.9 °F 35.6 °F 81% 29.92 in 5.0 mi ENE 24.2 mph - N/A Rain Light Rain
6:00 PM 41.0 °F 30.5 °F 35.6 °F 81% 29.91 in 5.0 mi ENE 26.5 mph 33.4 mph N/A Rain Light Rain
6:05 PM 41.0 °F 30.2 °F 37.4 °F 87% 29.90 in 6.0 mi ENE 27.6 mph 33.4 mph N/A Rain Light Rain
6:29 PM 39.2 °F 27.4 °F 37.4 °F 93% 29.86 in 9.0 mi ENE 29.9 mph 36.8 mph N/A   Overcast
6:37 PM 39.2 °F 28.5 °F 37.4 °F 93% 29.86 in 9.0 mi ENE 24.2 mph 34.5 mph N/A Rain Light Rain
6:51 PM 39.2 °F 28.0 °F 37.4 °F 93% 29.85 in 5.0 mi ENE 26.5 mph 32.2 mph N/A Rain Light Rain
6:56 PM 39.2 °F 28.0 °F 37.4 °F 93% 29.85 in 6.0 mi ENE 26.5 mph - N/A Rain Light Rain
7:00 PM 39.2 °F 27.8 °F 37.4 °F 93% 29.85 in 9.0 mi ENE 27.6 mph - N/A Rain Light Rain
7:23 PM 41.0 °F 30.5 °F 37.4 °F 87% 29.85 in 5.0 mi ENE 26.5 mph - N/A Rain Light Rain
7:38 PM 41.0 °F 30.9 °F 39.2 °F 93% 29.84 in 6.0 mi ENE 24.2 mph 32.2 mph N/A Rain Light Rain
7:55 PM 41.0 °F 30.9 °F 39.2 °F 93% 29.83 in 9.0 mi ENE 24.2 mph - N/A   Overcast
8:00 PM 40 °F - 39 °F 93% 29.83 in 10 mi ENE 23.0 mph - -   Clear
8:00 PM 41.0 °F 31.4 °F 39.2 °F 93% 29.83 in 9.0 mi ENE 21.9 mph 28.8 mph N/A   Overcast
8:55 PM 41.0 °F 31.9 °F 39.2 °F 93% 29.81 in 8.0 mi East 19.6 mph 27.6 mph N/A Rain Light Rain
8:59 PM 41.0 °F 31.4 °F 39.2 °F 93% 29.80 in 8.0 mi East 21.9 mph - N/A Rain , Thunderstorm Light Rain
9:00 PM 41.0 °F 31.6 °F 39.2 °F 93% 29.80 in 8.0 mi East 20.7 mph 26.5 mph N/A Rain , Thunderstorm Light Rain
9:23 PM 41.0 °F 31.4 °F 39.2 °F 93% 29.79 in 6.0 mi East 21.9 mph 27.6 mph N/A Rain , Thunderstorm Thunderstorms and Rain
9:24 PM 41.0 °F 31.6 °F 39.2 °F 93% 29.79 in 5.0 mi East 20.7 mph 27.6 mph N/A Rain , Thunderstorm Thunderstorms and Rain
9:31 PM 41.0 °F 31.4 °F 39.2 °F 93% 29.79 in 6.0 mi ENE 21.9 mph - N/A Rain , Thunderstorm Light Thunderstorms and Rain
9:53 PM 41.0 °F 33.1 °F 39.2 °F 93% 29.80 in 5.0 mi East 15.0 mph 21.9 mph N/A Rain , Thunderstorm Light Thunderstorms and Rain
10:00 PM 41.0 °F 34.7 °F 39.2 °F 93% 29.82 in 4.0 mi NE 10.4 mph 17.3 mph N/A Rain , Thunderstorm Light Thunderstorms and Rain
10:03 PM 42.8 °F 35.8 °F 39.2 °F 87% 29.81 in 7.0 mi NE 13.8 mph - N/A Rain , Thunderstorm Light Thunderstorms and Rain
10:16 PM 41.0 °F 32.5 °F 39.2 °F 93% 29.80 in 8.0 mi ENE 17.3 mph - N/A Rain Light Rain
10:34 PM 41.0 °F 33.1 °F 39.2 °F 93% 29.81 in 9.0 mi ENE 15.0 mph - N/A   Overcast
10:38 PM 42.8 °F 35.4 °F 39.2 °F 87% 29.81 in 9.0 mi ENE 15.0 mph - N/A Rain Light Rain
10:52 PM 41.0 °F 33.1 °F 39.2 °F 93% 29.80 in 9.0 mi ENE 15.0 mph - N/A   Overcast
11:00 PM 42.8 °F 35.4 °F 39.2 °F 87% 29.80 in 9.0 mi ENE 15.0 mph - N/A   Overcast